Miscellaneous Local Product
Issued by NWS North Platte, NE

Home | Current Version | Previous Version | Text Only | Print | Product List | Glossary On
Versions: 1 2 3 4 5 6 7 8 9 10 11 12 13 14 15 16 17 18 19 20 21 22 23 24 25 26 27 28 29 30 31 32 33 34 35 36 37 38 39 40 41 42 43 44 45 46 47 48 49 50
000
AXUS43 KLBF 260010
MISLBF


WESTERN AND NORTH CENTRAL NEBRASKA HOURLY WEATHER ROUNDUP
NATIONAL WEATHER SERVICE NORTH PLATTE NE
700 PM CDT SUN SEP 25 2016

NOTE: "FAIR" INDICATES FEW OR NO CLOUDS BELOW 12,000 FEET WITH NO
SIGNIFICANT WEATHER AND/OR OBSTRUCTIONS TO VISIBILITY.

NOTE: STATIONS NOT REPORTING VARIABLES SUCH AS SKY/WEATHER OR
PRESSURE ARE PROVIDED BY RAWS AND APRS NETWORKS AND ARE NOT UNDER
NATIONAL WEATHER SERVICE QUALITY CONTROL.

...OBSERVATIONS IN AND NEAR THE EASTERN PANHANDLE OF NEBRASKA...

CITY           SKY/WX    TMP DP  RH WIND       PRES   REMARKS
PINE RIDGE     CLEAR     63  27  25 N10       30.31R
CHADRON        CLEAR     63  28  26 NW13G21   30.33R
ALLIANCE       CLEAR     61  29  29 N14       30.34R
SIDNEY         LGT RAIN  63  33  32 N14       30.37R
$$

...OBSERVATIONS IN NORTHERN NEBRASKA AND FAR SOUTHERN SOUTH DAKOTA...

CITY           SKY/WX    TMP DP  RH WIND       PRES   REMARKS
WINNER         FAIR      65  27  23 NW21G31   30.23R
VALENTINE      CLEAR     63  24  22 NW17      30.28R
THEDFORD       CLEAR     63  27  24 N15G24    30.31R
AINSWORTH      CLEAR     63  30  29 NW12G23   30.27R
O`NEILL        CLEAR     64  24  22 NW17      30.23R
ORD            CLEAR     64  29  26 NW12G21   30.23R
BROKEN BOW     CLEAR     65  21  18 N18G25    30.26R
VALENTINE NWR    N/A     63  25  23 NW16G29     N/A
BUTTE            N/A     62  31  31 NW9G17      N/A
HALSEY           N/A     64  17  16 NW13G24     N/A
EWING            N/A     64  33  32 NW12G20     N/A
$$

...OBSERVATIONS IN SOUTHWEST NEBRASKA AND FAR NORTHEAST COLORADO...

CITY           SKY/WX    TMP DP  RH WIND       PRES   REMARKS
WRAY           FAIR      70  32  24 N13G22    30.34S
HOLYOKE        FAIR      66  32  28 NW14      30.35S
IMPERIAL       CLEAR     67  30  25 N15       30.33R
OGALLALA       CLEAR     67  32  27 NW14      30.32R
NORTH PLATTE   CLEAR     67  21  17 N13G20    30.30R
MCCOOK         CLEAR     67  23  19 N12       30.29R
LEXINGTON      CLEAR     66  20  17 N10       30.27R
STAPLETON        N/A     63  26  24 CALM        N/A
$$

...OBSERVATIONS IN CENTRAL LINCOLN COUNTY AREA...

CITY           SKY/WX    TMP DP  RH WIND       PRES   REMARKS
N.P. AIRPORT   CLEAR     67  21  17 N13G20    30.30R
N.P. DOWNTOWN    N/A     64  24  22 N6          N/A
N.P. SOUTHEAST   N/A     66  25  21 N6G15       N/A
N.P. HILLCREST   N/A     65  22  19 N12         N/A
$$

...SOME OBSERVATIONS FROM AROUND THE REGION...

CITY           SKY/WX    TMP DP  RH WIND       PRES   REMARKS
DENVER         CLEAR     65  29  25 NE3       30.39R
LARAMIE        CLEAR     57  30  35 NW12      30.44S
CHEYENNE       CLEAR     62  28  27 N10       30.39S
SCOTTSBLUFF    CLEAR     65  36  34 NW12      30.35R
RAPID CITY     CLEAR     62  31  31 N17       30.30S
BISMARCK       CLEAR     62  32  32 NW16G32   30.13R
PIERRE         CLEAR     64  27  24 NW17G29   30.18R
SIOUX FALLS    PTCLDY    62  41  46 NW12      30.11R
OMAHA          PTCLDY    66  47  50 NW10      30.14R
GRAND ISLAND   CLEAR     66  29  24 NW13      30.23R
KANSAS CITY    CLOUDY    63  56  78 W5        30.14S
WICHITA        CLOUDY    68  52  56 N7        30.19R
OKLAHOMA CITY  CLOUDY    65  54  67 N14       30.17R
DALLAS         CLOUDY    78  72  81 N10       30.03R
AMARILLO       PTCLDY    68  42  38 NE13      30.28R
DODGE CITY     CLEAR     71  36  27 N10       30.26R
HAYS           CLEAR     70  36  28 N12       30.24S
GOODLAND       CLEAR     66  32  28 N17G24    30.34R
$$




USA.gov is the U.S. government's official web portal to all federal, state and local government web resources and services.